DW5785 Weather Reports


Display with metric or nautical units.
time (UTC)temp
F
wind
direction
speed
MPH
gust
MPH
rain 1hr
in
rain 24hr
in
rain mn
in
humidity
%
barometer
mb
20260510112011 66 77 6.0 6.0 0.00 0.00 0.00 51 1013.6
20260510111517 66 358 4.0 11.0 0.00 0.00 0.00 53 1013.6
20260510111020 66 9 5.0 5.0 0.00 0.00 0.00 53 1013.7
20260510110521 65 277 3.0 11.0 0.00 0.00 0.00 53 1013.6
20260510110011 66 14 5.0 7.0 0.00 0.00 0.00 53 1013.7
20260510105514 65 30 1.0 8.0 0.00 0.00 0.00 53 1013.8
20260510105014 65 151 2.0 7.0 0.00 0.00 0.00 54 1013.8
20260510104511 65 24 6.0 9.0 0.00 0.00 0.00 53 1013.9
20260510104011 65 298 2.0 4.0 0.00 0.00 0.00 54 1013.9
20260510103512 64 62 1.0 10.0 0.00 0.00 0.00 55 1014.0
20260510103011 65 1 3.0 7.0 0.00 0.00 0.00 54 1014.0
20260510102520 64 224 2.0 7.0 0.00 0.00 0.00 56 1014.0
20260510102014 63 60 5.0 7.0 0.00 0.00 0.00 56 1014.1
20260510101511 62 359 5.0 11.0 0.00 0.00 0.00 56 1014.1
20260510101011 62 129 7.0 9.0 0.00 0.00 0.00 55 1014.3
20260510100512 63 60 6.0 14.0 0.00 0.00 0.00 55 1014.4
20260510100010 63 42 14.0 14.0 0.00 0.00 0.00 56 1014.3
20260510095510 63 4 1.0 9.0 0.00 0.00 0.00 56 1014.3
20260510095014 63 85 2.0 9.0 0.00 0.00 0.00 57 1014.3
20260510094514 62 48 4.0 9.0 0.00 0.00 0.00 57 1014.3
20260510094014 62 123 1.0 11.0 0.00 0.00 0.00 57 1014.4
20260510093521 62 66 2.0 8.0 0.00 0.00 0.00 58 1014.4
20260510093011 61 23 6.0 9.0 0.00 0.00 0.00 59 1014.5
20260510092511 61 81 6.0 12.0 0.00 0.00 0.00 58 1014.8
20260510092014 61 29 6.0 12.0 0.00 0.00 0.00 59 1014.9
20260510091511 61 84 7.0 11.0 0.00 0.00 0.00 58 1015.0
20260510091011 61 86 6.0 11.0 0.00 0.00 0.00 58 1015.1
20260510090512 61 82 2.0 8.0 0.00 0.00 0.00 59 1015.1
20260510090011 61 258 4.0 8.0 0.00 0.00 0.00 59 1015.1
20260510085517 60 282 3.0 6.0 0.00 0.00 0.00 60 1015.0
20260510085017 60 65 5.0 8.0 0.00 0.00 0.00 59 1015.1
20260510084511 59 53 2.0 11.0 0.00 0.00 0.00 59 1015.1
20260510084014 60 56 5.0 7.0 0.00 0.00 0.00 59 1015.2
20260510083515 60 45 5.0 9.0 0.00 0.00 0.00 58 1015.2
20260510083017 59 258 2.0 7.0 0.00 0.00 0.00 60 1015.3
20260510082511 59 81 4.0 7.0 0.00 0.00 0.00 61 1015.2
20260510082014 58 314 1.0 6.0 0.00 0.00 0.00 63 1015.4
20260510081511 57 287 0.0 6.0 0.00 0.00 0.00 63 1015.4
20260510081017 57 282 2.0 6.0 0.00 0.00 0.00 64 1015.5
20260510080518 56 33 1.0 6.0 0.00 0.00 0.00 65 1015.6
20260510080017 56 316 4.0 6.0 0.00 0.00 0.00 66 1015.5
20260510075511 56 299 1.0 7.0 0.00 0.00 0.00 66 1015.6
20260510075011 56 318 1.0 6.0 0.00 0.00 0.00 67 1015.6
20260510074514 55 287 3.0 6.0 0.00 0.00 0.00 67 1015.6
20260510074011 56 325 4.0 6.0 0.00 0.00 0.00 67 1015.6
20260510073512 56 315 5.0 6.0 0.00 0.00 0.00 66 1015.6
20260510073014 56 335 1.0 5.0 0.00 0.00 0.00 66 1015.7
20260510072511 56 287 4.0 5.0 0.00 0.00 0.00 66 1015.8
20260510072011 56 54 6.0 6.0 0.00 0.00 0.00 66 1015.9
20260510071520 55 65 4.0 6.0 0.00 0.00 0.00 65 1016.0
20260510071011 55 44 2.0 5.0 0.00 0.00 0.00 67 1015.9
20260510070515 54 62 2.0 5.0 0.00 0.00 0.00 68 1016.0
20260510070011 54 262 3.0 6.0 0.00 0.00 0.00 69 1016.1
20260510065520 53 94 4.0 5.0 0.00 0.00 0.00 70 1016.1
20260510065011 54 82 2.0 5.0 0.00 0.00 0.00 69 1016.3
20260510064511 54 96 4.0 4.0 0.00 0.00 0.00 70 1016.3
20260510064011 53 0 2.0 5.0 0.00 0.00 0.00 72 1016.4
20260510063512 53 128 2.0 5.0 0.00 0.00 0.00 74 1016.4
20260510063011 53 94 0.0 3.0 0.00 0.00 0.00 75 1016.3
20260510062511 52 26 1.0 4.0 0.00 0.00 0.00 76 1016.3
20260510062011 52 282 0.0 4.0 0.00 0.00 0.00 77 1016.3
20260510061517 52 64 1.0 5.0 0.00 0.00 0.00 77 1016.3
20260510061017 51 54 1.0 4.0 0.00 0.00 0.00 79 1016.3
20260510060515 51 61 2.0 4.0 0.00 0.00 0.00 79 1016.5
20260510060011 51 31 0.0 5.0 0.00 0.00 0.00 79 1016.5
20260510055517 51 63 2.0 5.0 0.00 0.00 0.00 81 1016.5
20260510055010 50 45 0.0 4.0 0.00 0.00 0.00 81 1016.5
20260510054514 49 59 2.0 5.0 0.00 0.00 0.00 82 1016.6
20260510054014 49 96 0.0 2.0 0.00 0.00 0.00 82 1016.7
20260510053515 49 96 2.0 4.0 0.00 0.00 0.00 82 1016.8
20260510053011 49 134 0.0 3.0 0.00 0.00 0.00 83 1016.8
20260510052511 48 134 1.0 3.0 0.00 0.00 0.00 83 1016.8
20260510052014 48 119 0.0 1.0 0.00 0.00 0.00 84 1016.8
20260510051511 48 119 0.0 2.0 0.00 0.00 0.00 85 1016.6
20260510051011 47 119 1.0 1.0 0.00 0.00 0.00 86 1016.7
20260510050512 46 119 0.0 2.0 0.00 0.00 0.00 87 1016.7
20260510050011 46 119 1.0 1.0 0.00 0.00 0.00 87 1016.8
20260510045511 45 119 1.0 2.0 0.00 0.00 0.00 87 1016.7
20260510045011 45 119 1.0 4.0 0.00 0.00 0.00 87 1016.7
20260510044511 45 37 1.0 4.0 0.00 0.00 0.00 86 1016.7
20260510044011 45 37 2.0 4.0 0.00 0.00 0.00 86 1016.7
20260510043515 45 37 2.0 2.0 0.00 0.00 0.00 86 1016.8
20260510043014 45 37 2.0 4.0 0.00 0.00 0.00 86 1016.7
20260510042511 46 18 4.0 5.0 0.00 0.00 0.00 86 1016.6
20260510042014 46 9 0.0 3.0 0.00 0.00 0.00 86 1016.7
20260510041511 45 35 2.0 2.0 0.00 0.00 0.00 86 1016.9
20260510041017 45 35 0.0 2.0 0.00 0.00 0.00 86 1016.9
20260510040515 45 35 0.0 0.0 0.00 0.00 0.00 86 1016.9
20260510040011 45 35 0.0 0.0 0.00 0.00 0.00 86 1016.9
20260510035514 45 35 0.0 0.0 0.00 0.00 0.00 87 1016.9
20260510035014 45 35 0.0 0.0 0.00 0.00 0.00 87 1016.9
20260510034517 45 35 0.0 2.0 0.00 0.00 0.00 87 1016.9
20260510034011 45 35 1.0 2.0 0.00 0.00 0.00 87 1016.8
20260510033515 45 35 1.0 2.0 0.00 0.00 0.00 87 1016.7
20260510033011 45 35 1.0 4.0 0.00 0.00 0.00 87 1016.6
20260510032514 45 33 2.0 4.0 0.00 0.00 0.00 87 1016.7
20260510032020 45 351 1.0 2.0 0.00 0.00 0.00 87 1016.7
20260510031517 45 351 0.0 2.0 0.00 0.00 0.00 87 1016.7
20260510031011 45 351 0.0 2.0 0.00 0.00 0.00 86 1016.9
20260510030515 45 341 1.0 3.0 0.00 0.00 0.00 86 1016.8
20260510030011 45 329 1.0 2.0 0.00 0.00 0.00 86 1016.8
20260510025514 45 329 0.0 0.0 0.00 0.00 0.00 86 1016.9
20260510025014 45 329 0.0 0.0 0.00 0.00 0.00 86 1017.0
20260510024520 45 329 0.0 2.0 0.00 0.00 0.00 86 1017.0
20260510024011 46 329 0.0 3.0 0.00 0.00 0.00 85 1017.0
20260510023512 46 319 2.0 4.0 0.00 0.00 0.00 85 1016.9
20260510023014 46 325 1.0 3.0 0.00 0.00 0.00 85 1017.1
20260510022511 46 326 1.0 3.0 0.00 0.00 0.00 85 1017.2
20260510022014 46 326 0.0 3.0 0.00 0.00 0.00 85 1017.3
20260510021511 46 326 2.0 4.0 0.00 0.00 0.00 84 1017.3
20260510021017 46 326 2.0 3.0 0.00 0.00 0.00 84 1017.5
20260510020515 47 326 2.0 4.0 0.00 0.00 0.00 84 1017.5
20260510020014 47 326 2.0 3.0 0.00 0.00 0.00 83 1017.5
20260510015511 47 325 2.0 3.0 0.00 0.00 0.00 83 1017.5
20260510015011 47 326 1.0 4.0 0.00 0.00 0.00 82 1017.6
20260510014510 47 331 3.0 5.0 0.00 0.00 0.00 82 1017.6
20260510014010 47 303 2.0 3.0 0.00 0.00 0.00 82 1017.7
20260510013515 48 303 2.0 3.0 0.00 0.00 0.00 82 1017.6
20260510013014 48 304 1.0 3.0 0.00 0.00 0.00 81 1017.7
20260510012511 48 308 2.0 3.0 0.00 0.00 0.00 81 1017.7
20260510012013 48 324 3.0 4.0 0.00 0.00 0.00 81 1017.8
20260510011511 48 326 2.0 3.0 0.00 0.00 0.00 80 1017.7
20260510011011 48 326 2.0 3.0 0.00 0.00 0.00 80 1017.7
20260510010515 48 326 2.0 3.0 0.00 0.00 0.00 80 1017.9
20260510010017 48 326 2.0 3.0 0.00 0.00 0.00 80 1017.9
20260510005517 49 312 3.0 4.0 0.00 0.00 0.00 80 1017.9
20260510005014 49 316 2.0 4.0 0.00 0.00 0.00 79 1017.9
20260510004514 49 308 3.0 4.0 0.00 0.00 0.00 79 1018.0
20260510004015 49 296 4.0 4.0 0.00 0.00 0.00 78 1018.1
20260510003520 49 19 0.0 1.0 0.00 0.00 0.00 77 1018.2
20260510003011 49 19 0.0 2.0 0.00 0.00 0.00 77 1018.3
20260510002514 50 19 2.0 2.0 0.00 0.00 0.00 76 1018.3
20260510002011 50 19 2.0 2.0 0.00 0.00 0.00 75 1018.4
20260510001511 50 19 1.0 1.0 0.00 0.00 0.00 75 1018.5
20260510001015 50 19 1.0 4.0 0.00 0.00 0.00 75 1018.6
20260510000514 50 9 2.0 4.0 0.00 0.00 0.00 75 1018.6
20260510000011 50 11 1.0 3.0 0.00 0.00 0.00 75 1018.7
20260509235511 50 349 1.0 2.0 0.00 0.00 0.00 75 1018.7
20260509235017 50 349 1.0 2.0 0.00 0.00 0.00 74 1018.8
20260509234514 50 349 0.0 1.0 0.00 0.00 0.00 75 1018.8
20260509234012 50 349 0.0 2.0 0.00 0.00 0.00 75 1018.8
20260509233511 50 349 0.0 2.0 0.00 0.00 0.00 75 1018.8
20260509233011 50 349 0.0 1.0 0.00 0.00 0.00 75 1019.0
20260509232517 50 349 0.0 4.0 0.00 0.00 0.00 74 1018.9
20260509232011 50 350 2.0 4.0 0.00 0.00 0.00 74 1018.9
20260509231514 51 0 3.0 4.0 0.00 0.00 0.00 74 1018.9
20260509231012 51 3 2.0 4.0 0.00 0.00 0.00 74 1019.0
20260509230511 51 11 2.0 3.0 0.00 0.00 0.00 74 1019.1
20260509230011 51 11 0.0 5.0 0.00 0.00 0.00 74 1019.2
20260509225514 51 12 2.0 4.0 0.00 0.00 0.00 73 1019.1
20260509225014 51 42 2.0 5.0 0.00 0.00 0.00 73 1019.2
20260509224520 51 32 2.0 6.0 0.00 0.00 0.00 73 1019.2
20260509224012 51 23 1.0 7.0 0.00 0.00 0.00 72 1019.3
20260509223511 51 10 5.0 7.0 0.00 0.00 0.00 72 1019.3
20260509223011 52 15 5.0 7.0 0.00 0.00 0.00 72 1019.3
20260509222511 52 41 2.0 5.0 0.00 0.00 0.00 71 1019.3
20260509222017 52 53 5.0 7.0 0.00 0.00 0.00 71 1019.3
20260509221511 52 29 5.0 9.0 0.00 0.00 0.00 72 1019.3
20260509221018 52 337 1.0 8.0 0.00 0.00 0.00 72 1019.3
20260509220511 52 55 1.0 6.0 0.00 0.00 0.00 72 1019.3
20260509220020 52 12 4.0 7.0 0.00 0.00 0.00 72 1019.4
20260509215510 52 13 4.0 9.0 0.00 0.00 0.00 71 1019.4
20260509215018 52 17 5.0 8.0 0.00 0.00 0.00 72 1019.5
20260509214516 52 25 5.0 8.0 0.00 0.00 0.00 72 1019.5
20260509214011 52 46 4.0 5.0 0.00 0.00 0.00 71 1019.6
20260509213513 53 52 1.0 5.0 0.00 0.00 0.00 71 1019.6
20260509213017 53 30 4.0 8.0 0.00 0.00 0.00 71 1019.7
20260509212513 53 37 2.0 11.0 0.00 0.00 0.00 71 1019.6
20260509212012 52 29 4.0 9.0 0.00 0.00 0.00 72 1019.6
20260509211511 52 9 4.0 7.0 0.00 0.00 0.00 73 1019.6
20260509211013 52 37 6.0 7.0 0.00 0.00 0.00 73 1019.7
20260509210510 52 44 4.0 5.0 0.00 0.00 0.00 73 1019.7
20260509210012 53 46 4.0 6.0 0.00 0.00 0.00 73 1019.7
20260509205514 53 60 7.0 7.0 0.00 0.00 0.00 72 1019.8
20260509205014 53 47 6.0 8.0 0.00 0.00 0.00 72 1019.8
20260509204511 53 17 2.0 5.0 0.00 0.00 0.00 72 1019.7
20260509204013 53 15 1.0 6.0 0.00 0.00 0.00 71 1019.7
20260509203514 53 30 2.0 9.0 0.00 0.00 0.00 71 1019.7
20260509203015 53 353 4.0 11.0 0.00 0.00 0.00 71 1019.7
20260509202517 54 9 5.0 8.0 0.00 0.00 0.00 71 1019.7
20260509202011 54 338 3.0 8.0 0.00 0.00 0.00 70 1019.7
20260509201517 54 355 3.0 7.0 0.00 0.00 0.00 70 1019.7
20260509201014 54 353 3.0 7.0 0.00 0.00 0.00 69 1019.7
20260509200520 54 341 2.0 7.0 0.00 0.00 0.00 69 1019.7
20260509200015 54 9 1.0 11.0 0.00 0.00 0.00 69 1019.7
20260509195511 54 1 7.0 10.0 0.00 0.00 0.00 69 1019.6
20260509195011 54 336 6.0 12.0 0.00 0.00 0.00 69 1019.6
20260509194520 54 352 7.0 8.0 0.00 0.00 0.00 69 1019.6
20260509194011 55 319 3.0 8.0 0.00 0.00 0.00 68 1019.6
20260509193520 55 16 7.0 8.0 0.00 0.00 0.00 68 1019.5
20260509193012 55 337 5.0 7.0 0.00 0.00 0.00 67 1019.5
20260509192514 55 17 4.0 10.0 0.00 0.00 0.00 67 1019.5
20260509192011 55 3 4.0 11.0 0.00 0.00 0.00 67 1019.4
20260509191511 55 39 6.0 12.0 0.00 0.00 0.00 67 1019.4
20260509191011 55 356 8.0 12.0 0.00 0.00 0.00 67 1019.4
20260509190514 55 14 4.0 11.0 0.00 0.00 0.00 67 1019.3
20260509190012 55 4 4.0 9.0 0.00 0.00 0.00 67 1019.3
20260509185520 56 282 6.0 11.0 0.00 0.00 0.00 67 1019.3
20260509185011 56 19 7.0 13.0 0.00 0.00 0.00 66 1019.3
20260509184511 56 12 11.0 13.0 0.00 0.00 0.00 66 1019.2
20260509184012 56 331 8.0 13.0 0.00 0.00 0.00 66 1019.2
20260509183514 56 178 2.0 12.0 0.00 0.00 0.00 66 1019.1
20260509183011 56 66 4.0 14.0 0.00 0.00 0.00 66 1019.2
20260509182514 56 4 6.0 14.0 0.00 0.00 0.00 66 1019.1
20260509182018 57 323 6.0 13.0 0.00 0.00 0.00 65 1019.1
20260509181514 57 25 6.0 15.0 0.00 0.00 0.00 65 1019.1
20260509181011 57 62 6.0 14.0 0.00 0.00 0.00 64 1019.1
20260509180510 57 349 10.0 14.0 0.00 0.00 0.00 63 1019.2
20260509180010 57 32 4.0 12.0 0.00 0.00 0.00 62 1019.1
20260509175515 58 33 5.0 11.0 0.00 0.00 0.00 61 1019.1
20260509175010 58 27 5.0 12.0 0.00 0.00 0.00 61 1019.1
20260509174513 58 10 11.0 15.0 0.00 0.00 0.00 61 1019.1
20260509174013 58 8 7.0 14.0 0.00 0.00 0.00 61 1019.1
20260509173510 58 326 5.0 12.0 0.00 0.00 0.00 61 1019.1
20260509173012 58 103 3.0 13.0 0.00 0.00 0.00 60 1019.1
20260509172519 58 83 5.0 14.0 0.00 0.00 0.00 60 1019.0
20260509172013 59 341 7.0 14.0 0.00 0.00 0.00 60 1019.0
20260509171510 59 14 6.0 14.0 0.00 0.00 0.00 59 1019.0
20260509171010 59 327 8.0 11.0 0.00 0.00 0.00 59 1019.0
20260509170511 59 24 1.0 11.0 0.00 0.00 0.00 59 1019.0
20260509170018 59 351 10.0 10.0 0.00 0.00 0.00 59 1019.0
20260509165510 59 359 7.0 15.0 0.00 0.00 0.00 58 1019.0
20260509165014 60 358 7.0 13.0 0.00 0.00 0.00 58 1019.0
20260509164510 60 353 3.0 12.0 0.00 0.00 0.00 57 1019.0
20260509164010 60 323 4.0 12.0 0.00 0.00 0.00 57 1019.0
20260509163512 60 291 4.0 11.0 0.00 0.00 0.00 57 1018.9
20260509163010 60 346 3.0 10.0 0.00 0.00 0.00 57 1018.9
20260509162511 60 38 5.0 13.0 0.00 0.00 0.00 56 1018.9
20260509162011 61 99 5.0 12.0 0.00 0.00 0.00 57 1019.0
20260509161511 61 355 6.0 13.0 0.00 0.00 0.00 56 1019.1
20260509161011 61 340 4.0 6.0 0.00 0.00 0.00 56 1019.1
20260509160512 62 3 6.0 12.0 0.00 0.00 0.00 54 1019.1
20260509160017 62 256 1.0 7.0 0.00 0.00 0.00 55 1019.1
20260509155517 62 341 6.0 10.0 0.00 0.00 0.00 55 1019.1
20260509155010 61 325 3.0 6.0 0.00 0.00 0.00 56 1019.1
20260509154517 61 299 3.0 8.0 0.00 0.00 0.00 56 1019.1
20260509154011 61 4 1.0 8.0 0.00 0.00 0.00 56 1019.2
20260509153515 61 296 2.0 6.0 0.00 0.00 0.00 57 1019.2
20260509153014 61 266 2.0 7.0 0.00 0.00 0.00 56 1019.2
20260509152514 62 262 2.0 10.0 0.00 0.00 0.00 55 1019.2
20260509152013 62 337 4.0 8.0 0.00 0.00 0.00 55 1019.1
20260509151514 62 258 3.0 5.0 0.00 0.00 0.00 56 1019.1
20260509151011 61 326 5.0 6.0 0.00 0.00 0.00 56 1019.1
20260509150512 61 287 0.0 6.0 0.00 0.00 0.00 56 1019.1
20260509150015 61 277 6.0 8.0 0.00 0.00 0.00 58 1019.2
20260509145517 61 243 3.0 9.0 0.00 0.00 0.00 58 1019.2
20260509145014 60 310 4.0 5.0 0.00 0.00 0.00 58 1019.2
20260509144520 60 287 4.0 7.0 0.00 0.00 0.00 57 1019.2
20260509144011 60 237 4.0 6.0 0.00 0.00 0.00 56 1019.2
20260509143515 61 307 5.0 9.0 0.00 0.00 0.00 55 1019.2
20260509143014 62 8 2.0 7.0 0.00 0.00 0.00 55 1019.2
20260509142511 62 331 2.0 7.0 0.00 0.00 0.00 56 1019.2
20260509142014 62 346 2.0 10.0 0.00 0.00 0.00 55 1019.3
20260509141520 62 242 6.0 9.0 0.00 0.00 0.00 54 1019.3
20260509141011 63 262 4.0 8.0 0.00 0.00 0.00 53 1019.3
20260509140512 62 258 0.0 5.0 0.00 0.00 0.00 56 1019.3
20260509140010 61 24 4.0 7.0 0.00 0.00 0.00 56 1019.4
20260509135510 60 310 5.0 8.0 0.00 0.00 0.00 59 1019.5
20260509135010 59 300 5.0 5.0 0.00 0.00 0.00 59 1019.5
20260509134519 59 321 5.0 8.0 0.00 0.00 0.00 58 1019.5
20260509134013 61 316 5.0 8.0 0.00 0.00 0.00 57 1019.5
20260509133512 61 263 2.0 8.0 0.00 0.00 0.00 57 1019.5
20260509133014 60 343 5.0 5.0 0.00 0.00 0.00 58 1019.6
20260509132516 59 348 2.0 6.0 0.00 0.00 0.00 61 1019.6
20260509132010 59 356 5.0 8.0 0.00 0.00 0.00 59 1019.7
20260509131516 60 304 3.0 9.0 0.00 0.00 0.00 59 1019.7
20260509131016 61 317 4.0 8.0 0.00 0.00 0.00 58 1019.7
20260509130512 60 116 1.0 4.0 0.00 0.00 0.00 59 1019.7
20260509130013 60 318 2.0 8.0 0.00 0.00 0.00 59 1019.8
20260509125510 60 0 2.0 7.0 0.00 0.00 0.00 59 1019.8
20260509125013 60 100 1.0 7.0 0.00 0.00 0.00 60 1019.9
20260509124516 59 7 2.0 8.0 0.00 0.00 0.00 60 1019.9
20260509124013 60 294 5.0 6.0 0.00 0.00 0.00 60 1019.9
20260509123515 60 131 3.0 10.0 0.00 0.00 0.00 58 1020.0
20260509123013 61 258 2.0 6.0 0.00 0.00 0.00 58 1020.0
20260509122511 60 10 5.0 8.0 0.00 0.00 0.00 59 1020.0
20260509122010 60 277 3.0 11.0 0.00 0.00 0.00 60 1019.9
20260509121511 60 351 2.0 11.0 0.00 0.00 0.00 61 1019.9
20260509121015 59 295 3.0 10.0 0.00 0.00 0.00 62 1020.0
20260509120519 59 348 3.0 10.0 0.00 0.00 0.00 63 1020.1
20260509120014 59 261 5.0 10.0 0.00 0.00 0.00 63 1020.1
20260509115513 59 287 3.0 11.0 0.00 0.00 0.00 65 1020.2
20260509115013 58 198 2.0 11.0 0.00 0.00 0.00 66 1020.2
20260509114510 57 304 6.0 11.0 0.00 0.00 0.00 67 1020.2
20260509114012 57 317 8.0 10.0 0.00 0.00 0.00 66 1020.2
20260509113511 57 337 5.0 8.0 0.00 0.00 0.00 66 1020.3
20260509113014 57 298 5.0 9.0 0.00 0.00 0.00 66 1020.3
20260509112517 57 311 7.0 10.0 0.00 0.00 0.00 66 1020.3